| time (UTC) | temp F | wind direction | speed MPH | gust MPH | rain 1hr in | rain 24hr in | rain mn in | humidity % | barometer mb |
| 20260903151530 | 68 | 128 | 0.0 | 1.0 | 0.00 | 0.11 | 0.11 | 71 | 1010.7 |
| 20260903150027 | 69 | 158 | 0.0 | 3.0 | 0.00 | 0.11 | 0.11 | 68 | 1010.9 |
| 20260903144526 | 70 | 135 | 0.0 | 3.0 | 0.00 | 0.13 | 0.11 | 66 | 1010.9 |
| 20260903143025 | 70 | 194 | 0.0 | 5.0 | 0.00 | 0.13 | 0.11 | 66 | 1010.8 |
| 20260903141524 | 69 | 176 | 0.0 | 4.0 | 0.00 | 0.13 | 0.11 | 67 | 1010.7 |
| 20260903140023 | 69 | 330 | 0.0 | 7.0 | 0.00 | 0.13 | 0.11 | 68 | 1010.5 |
| 20260903134523 | 69 | 137 | 0.0 | 3.0 | 0.00 | 0.13 | 0.11 | 68 | 1010.7 |
| 20260903133023 | 70 | 148 | 0.0 | 3.0 | 0.00 | 0.13 | 0.11 | 66 | 1010.6 |
| 20260903131520 | 68 | 219 | 0.0 | 3.0 | 0.00 | 0.13 | 0.11 | 66 | 1010.9 |
| 20260903130019 | 67 | 259 | 0.0 | 6.0 | 0.00 | 0.13 | 0.11 | 64 | 1010.7 |
| 20260903124518 | 67 | 148 | 0.0 | 6.0 | 0.00 | 0.13 | 0.11 | 65 | 1010.8 |
| 20260903123017 | 67 | 4 | 0.0 | 2.0 | 0.00 | 0.13 | 0.11 | 65 | 1010.7 |
| 20260903121524 | 67 | 357 | 0.0 | 0.0 | 0.00 | 0.13 | 0.11 | 68 | 1010.9 |
| 20260903120015 | 68 | 335 | 0.0 | 1.0 | 0.00 | 0.13 | 0.11 | 68 | 1011.0 |
| 20260903114515 | 68 | 9 | 0.0 | 4.0 | 0.00 | 0.14 | 0.11 | 70 | 1010.9 |
| 20260903113011 | 66 | 359 | 0.0 | 1.0 | 0.00 | 0.14 | 0.11 | 76 | 1010.9 |
| 20260903111507 | 65 | 86 | 0.0 | 4.0 | 0.00 | 0.14 | 0.11 | 77 | 1010.9 |
| 20260903110005 | 65 | 4 | 0.0 | 0.0 | 0.00 | 0.14 | 0.11 | 77 | 1010.9 |
| 20260903104504 | 64 | 107 | 0.0 | 3.0 | 0.00 | 0.15 | 0.11 | 78 | 1010.9 |
| 20260903103002 | 64 | 8 | 0.0 | 7.0 | 0.00 | 0.15 | 0.11 | 77 | 1010.9 |
| 20260903101602 | 64 | 10 | 0.0 | 3.0 | 0.00 | 0.15 | 0.11 | 78 | 1010.7 |
| 20260903100059 | 64 | 328 | 0.0 | 1.0 | 0.00 | 0.15 | 0.11 | 79 | 1010.9 |
| 20260903094600 | 64 | 37 | 0.0 | 1.0 | 0.00 | 0.15 | 0.11 | 79 | 1010.5 |
| 20260903093058 | 63 | 325 | 0.0 | 2.0 | 0.00 | 0.15 | 0.11 | 80 | 1010.4 |
| 20260903091556 | 63 | 26 | 0.0 | 1.0 | 0.00 | 0.15 | 0.11 | 79 | 1010.4 |
| 20260903090054 | 63 | 6 | 0.0 | 1.0 | 0.00 | 0.15 | 0.11 | 79 | 1010.3 |
| 20260903084557 | 62 | 66 | 0.0 | 2.0 | 0.00 | 0.15 | 0.11 | 79 | 1010.1 |
| 20260903083052 | 62 | 310 | 0.0 | 1.0 | 0.00 | 0.15 | 0.11 | 80 | 1009.9 |
| 20260903081551 | 63 | 340 | 0.0 | 1.0 | 0.00 | 0.15 | 0.11 | 83 | 1010.1 |
| 20260903080048 | 63 | 3 | 0.0 | 3.0 | 0.00 | 0.15 | 0.11 | 85 | 1010.2 |
| 20260903074610 | 62 | 53 | 0.0 | 2.0 | 0.00 | 0.15 | 0.11 | 87 | 1009.9 |
| 20260903073055 | 62 | 321 | 0.0 | 2.0 | 0.00 | 0.15 | 0.11 | 88 | 1009.7 |
| 20260903071543 | 62 | 27 | 0.0 | 10.0 | 0.00 | 0.15 | 0.11 | 89 | 1009.4 |
| 20260903070041 | 61 | 15 | 0.0 | 1.0 | 0.00 | 0.15 | 0.11 | 91 | 1009.4 |
| 20260903064540 | 61 | 350 | 0.0 | 0.0 | 0.00 | 0.15 | 0.11 | 92 | 1009.3 |
| 20260903063038 | 61 | 89 | 0.0 | 1.0 | 0.00 | 0.15 | 0.11 | 92 | 1009.2 |
| 20260903061555 | 0 | 0.0 | 0.0 | 0.00 | 0.15 | 0.11 | 1008.9 | ||
| 20260903060033 | 0 | 0.0 | 0.0 | 0.00 | 0.15 | 0.11 | 1008.9 | ||
| 20260903054526 | 0 | 0.0 | 0.0 | 0.00 | 0.15 | 0.11 | 1008.6 | ||
| 20260903053022 | 0 | 0.0 | 0.0 | 0.00 | 0.15 | 0.11 | 1008.6 | ||
| 20260903051518 | 0 | 0.0 | 0.0 | 0.00 | 0.15 | 0.11 | 1008.4 | ||
| 20260903050014 | 0 | 0.0 | 0.0 | 0.00 | 0.15 | 0.11 | 1008.4 | ||
| 20260903044507 | 0 | 0.0 | 0.0 | 0.00 | 0.15 | 0.11 | 1008.5 | ||
| 20260903043004 | 0 | 0.0 | 0.0 | 0.01 | 0.15 | 0.11 | 1008.2 | ||
| 20260903041612 | 62 | 49 | 0.0 | 0.0 | 0.05 | 0.15 | 0.11 | 95 | 1008.2 |
| 20260903040059 | 62 | 86 | 0.0 | 0.0 | 0.05 | 0.15 | 0.11 | 95 | 1008.1 |
| 20260903034558 | 62 | 118 | 0.0 | 1.0 | 0.05 | 0.15 | 0.11 | 95 | 1008.0 |
| 20260903033057 | 62 | 82 | 0.0 | 0.0 | 0.04 | 0.14 | 0.10 | 95 | 1008.0 |
| 20260903031557 | 62 | 113 | 0.0 | 0.0 | 0.06 | 0.10 | 0.06 | 95 | 1007.8 |
| 20260903030055 | 62 | 113 | 0.0 | 0.0 | 0.06 | 0.10 | 0.06 | 94 | 1007.8 |
| 20260903024556 | 63 | 202 | 0.0 | 0.0 | 0.06 | 0.10 | 0.06 | 94 | 1007.8 |
| 20260903023052 | 63 | 139 | 0.0 | 1.0 | 0.06 | 0.10 | 0.06 | 94 | 1007.8 |
| 20260903021551 | 63 | 163 | 0.0 | 1.0 | 0.00 | 0.04 | 0.00 | 94 | 1008.0 |
| 20260903020053 | 63 | 92 | 0.0 | 1.0 | 0.00 | 0.04 | 0.00 | 94 | 1007.9 |
| 20260903014610 | 63 | 252 | 0.0 | 1.0 | 0.00 | 0.04 | 0.00 | 94 | 1007.9 |
| 20260903013101 | 64 | 89 | 0.0 | 1.0 | 0.00 | 0.04 | 0.00 | 93 | 1008.1 |
| 20260903011613 | 64 | 89 | 0.0 | 2.0 | 0.00 | 0.04 | 0.00 | 93 | 1008.1 |
| 20260903010103 | 63 | 155 | 0.0 | 4.0 | 0.00 | 0.04 | 0.00 | 94 | 1007.9 |
| 20260903004543 | 63 | 227 | 0.0 | 0.0 | 0.00 | 0.04 | 0.00 | 94 | 1008.1 |
| 20260903003055 | 63 | 133 | 0.0 | 0.0 | 0.00 | 0.04 | 0.00 | 94 | 1008.1 |
| 20260903001553 | 63 | 201 | 0.0 | 1.0 | 0.00 | 0.04 | 0.00 | 94 | 1008.3 |
| 20260903000046 | 64 | 187 | 0.0 | 3.0 | 0.00 | 0.04 | 0.00 | 94 | 1008.4 |
| 20260902234542 | 63 | 209 | 0.0 | 3.0 | 0.00 | 0.04 | 0.00 | 95 | 1008.5 |
| 20260902233038 | 63 | 193 | 0.0 | 3.0 | 0.00 | 0.04 | 0.00 | 95 | 1008.3 |
| 20260902231544 | 63 | 143 | 0.0 | 1.0 | 0.00 | 0.04 | 0.00 | 95 | 1008.6 |
| 20260902230040 | 62 | 196 | 0.0 | 0.0 | 0.00 | 0.04 | 0.00 | 95 | 1008.6 |
| 20260902224531 | 62 | 177 | 0.0 | 0.0 | 0.00 | 0.04 | 0.04 | 95 | 1008.7 |
| 20260902223039 | 62 | 172 | 0.0 | 0.0 | 0.00 | 0.04 | 0.04 | 95 | 1008.6 |
| 20260902221532 | 62 | 153 | 0.0 | 0.0 | 0.00 | 0.04 | 0.04 | 95 | 1008.6 |
| 20260902220035 | 61 | 138 | 0.0 | 0.0 | 0.00 | 0.04 | 0.04 | 95 | 1008.7 |
| 20260902214530 | 61 | 101 | 0.0 | 0.0 | 0.00 | 0.04 | 0.04 | 95 | 1008.8 |
| 20260902213027 | 61 | 102 | 0.0 | 0.0 | 0.00 | 0.04 | 0.04 | 95 | 1008.8 |
| 20260902211529 | 61 | 148 | 0.0 | 0.0 | 0.00 | 0.04 | 0.04 | 95 | 1008.9 |
| 20260902210025 | 61 | 150 | 0.0 | 0.0 | 0.00 | 0.04 | 0.04 | 95 | 1008.9 |
| 20260902204522 | 61 | 187 | 0.0 | 0.0 | 0.00 | 0.04 | 0.04 | 95 | 1009.2 |
| 20260902203025 | 61 | 192 | 0.0 | 0.0 | 0.00 | 0.04 | 0.04 | 95 | 1009.3 |
| 20260902201522 | 61 | 223 | 0.0 | 0.0 | 0.00 | 0.04 | 0.04 | 95 | 1009.2 |
| 20260902200025 | 62 | 121 | 0.0 | 1.0 | 0.00 | 0.04 | 0.04 | 95 | 1009.2 |
| 20260902194535 | 62 | 149 | 0.0 | 0.0 | 0.00 | 0.04 | 0.04 | 95 | 1009.3 |
| 20260902193020 | 61 | 146 | 0.0 | 1.0 | 0.00 | 0.04 | 0.04 | 95 | 1009.3 |
| 20260902191518 | 61 | 169 | 0.0 | 1.0 | 0.00 | 0.04 | 0.04 | 95 | 1009.4 |
| 20260902190017 | 61 | 147 | 0.0 | 1.0 | 0.00 | 0.04 | 0.04 | 95 | 1009.5 |
| 20260902184520 | 61 | 143 | 0.0 | 1.0 | 0.00 | 0.04 | 0.04 | 94 | 1009.6 |
| 20260902183016 | 61 | 140 | 0.0 | 1.0 | 0.00 | 0.04 | 0.04 | 94 | 1009.6 |
| 20260902181514 | 61 | 139 | 0.0 | 1.0 | 0.00 | 0.04 | 0.04 | 94 | 1009.7 |
| 20260902180012 | 61 | 136 | 0.0 | 0.0 | 0.00 | 0.04 | 0.04 | 94 | 1009.9 |
| 20260902174512 | 61 | 128 | 0.0 | 1.0 | 0.00 | 0.04 | 0.04 | 94 | 1010.1 |
| 20260902173010 | 61 | 146 | 0.0 | 1.0 | 0.00 | 0.04 | 0.04 | 93 | 1010.2 |
| 20260902171512 | 61 | 148 | 0.0 | 2.0 | 0.00 | 0.04 | 0.04 | 93 | 1010.3 |
| 20260902170013 | 61 | 141 | 0.0 | 4.0 | 0.00 | 0.04 | 0.04 | 92 | 1010.6 |
| 20260902164503 | 61 | 139 | 0.0 | 1.0 | 0.00 | 0.04 | 0.04 | 92 | 1010.9 |
| 20260902163001 | 62 | 117 | 0.0 | 1.0 | 0.00 | 0.04 | 0.04 | 92 | 1011.1 |
| 20260902161600 | 62 | 146 | 0.0 | 1.0 | 0.00 | 0.04 | 0.04 | 91 | 1011.2 |
| 20260902160108 | 62 | 129 | 0.0 | 1.0 | 0.00 | 0.04 | 0.04 | 91 | 1011.5 |
| 20260902154601 | 62 | 144 | 0.0 | 4.0 | 0.01 | 0.04 | 0.04 | 90 | 1011.7 |
| 20260902153054 | 62 | 135 | 0.0 | 1.0 | 0.01 | 0.04 | 0.04 | 91 | 1011.8 |